Stündliche Wetter Holzuevo

Heute, 16 Juni, Mittwoch

Zeit Temperatur Niederschläge Wind Luftdruck Luftfeuchtigkeit
00:00 +14°C° 0 mm 1 m/S 736 mmHg 95%
01:00 +14°C° 0 mm 2 m/S 737 mmHg 95%
02:00 +14°C° 0 mm 2 m/S 737 mmHg 95%
03:00 +14°C° 0 mm 2 m/S 737 mmHg 92%
04:00 +14°C° 0 mm 2 m/S 737 mmHg 90%
05:00 +14°C° 0 mm 2 m/S 737 mmHg 87%
06:00 +16°C° 0 mm 2 m/S 738 mmHg 75%
07:00 +17°C° 0 mm 2 m/S 738 mmHg 63%
08:00 +19°C° 0 mm 2 m/S 738 mmHg 51%
09:00 +20°C° 0 mm 2 m/S 739 mmHg 46%
10:00 +21°C° 0 mm 2 m/S 739 mmHg 42%
11:00 +23°C° 0 mm 2 m/S 739 mmHg 37%
12:00 +23°C° 0 mm 2 m/S 739 mmHg 36%
13:00 +24°C° 0 mm 3 m/S 739 mmHg 34%
14:00 +24°C° 0 mm 3 m/S 739 mmHg 33%
15:00 +24°C° 0 mm 3 m/S 740 mmHg 35%
16:00 +22°C° 0 mm 3 m/S 740 mmHg 37%
17:00 +22°C° 0 mm 3 m/S 740 mmHg 39%
18:00 +20°C° 0 mm 2 m/S 740 mmHg 48%
19:00 +18°C° 0 mm 2 m/S 741 mmHg 57%
20:00 +15°C° 0 mm 2 m/S 741 mmHg 66%
21:00 +14°C° 0 mm 2 m/S 741 mmHg 67%
22:00 +13°C° 0 mm 1 m/S 742 mmHg 67%
23:00 +12°C° 0 mm 1 m/S 742 mmHg 67%

Morgen, 17 Juni, Donnerstag

Zeit Temperatur Niederschläge Wind Luftdruck Luftfeuchtigkeit
00:00 +12°C° 0 mm 1 m/S 743 mmHg 70%
01:00 +11°C° 0 mm 1 m/S 743 mmHg 72%
02:00 +11°C° 0 mm 1 m/S 743 mmHg 74%
03:00 +12°C° 0 mm 1 m/S 744 mmHg 73%
04:00 +11°C° 0 mm 0 m/S 744 mmHg 71%
05:00 +12°C° 0 mm 0 m/S 744 mmHg 70%
06:00 +15°C° 0 mm 0 m/S 744 mmHg 62%
07:00 +17°C° 0 mm 0 m/S 745 mmHg 54%
08:00 +19°C° 0 mm 0 m/S 745 mmHg 46%
09:00 +21°C° 0 mm 0 m/S 745 mmHg 43%
10:00 +24°C° 0 mm 1 m/S 745 mmHg 39%
11:00 +25°C° 0 mm 1 m/S 746 mmHg 36%
12:00 +26°C° 0 mm 1 m/S 746 mmHg 34%
13:00 +26°C° 0 mm 1 m/S 745 mmHg 33%
14:00 +26°C° 0 mm 1 m/S 745 mmHg 32%
15:00 +26°C° 0 mm 1 m/S 745 mmHg 34%
16:00 +26°C° 0 mm 1 m/S 745 mmHg 36%
17:00 +26°C° 0 mm 1 m/S 745 mmHg 38%
18:00 +23°C° 0 mm 1 m/S 745 mmHg 48%
19:00 +21°C° 0 mm 1 m/S 746 mmHg 58%
20:00 +19°C° 0 mm 1 m/S 746 mmHg 69%
21:00 +18°C° 0 mm 1 m/S 746 mmHg 71%
22:00 +16°C° 0 mm 1 m/S 746 mmHg 73%
23:00 +14°C° 0 mm 0 m/S 746 mmHg 75%

übermorgen, 18 Juni, Freitag

Zeit Temperatur Niederschläge Wind Luftdruck Luftfeuchtigkeit
00:00 +14°C° 0 mm 1 m/S 746 mmHg 76%
01:00 +14°C° 0 mm 1 m/S 746 mmHg 78%
02:00 +14°C° 0 mm 1 m/S 747 mmHg 79%
03:00 +14°C° 0 mm 1 m/S 747 mmHg 78%
04:00 +15°C° 0 mm 1 m/S 747 mmHg 77%
05:00 +16°C° 0 mm 1 m/S 747 mmHg 77%
06:00 +19°C° 0 mm 1 m/S 747 mmHg 69%
07:00 +21°C° 0 mm 1 m/S 747 mmHg 61%
08:00 +23°C° 0 mm 1 m/S 747 mmHg 53%
09:00 +25°C° 0 mm 2 m/S 747 mmHg 48%
10:00 +26°C° 0 mm 2 m/S 747 mmHg 43%
11:00 +27°C° 0 mm 2 m/S 747 mmHg 38%
12:00 +28°C° 0 mm 2 m/S 747 mmHg 37%
13:00 +28°C° 0 mm 2 m/S 747 mmHg 36%
14:00 +29°C° 0 mm 3 m/S 746 mmHg 35%
15:00 +29°C° 0 mm 2 m/S 746 mmHg 38%
16:00 +28°C° 0 mm 2 m/S 746 mmHg 41%
17:00 +28°C° 0 mm 2 m/S 746 mmHg 44%
18:00 +26°C° 0 mm 2 m/S 746 mmHg 54%
19:00 +24°C° 0 mm 2 m/S 746 mmHg 64%
20:00 +21°C° 0 mm 2 m/S 746 mmHg 74%
21:00 +19°C° 0 mm 2 m/S 746 mmHg 78%
22:00 +18°C° 0 mm 2 m/S 746 mmHg 83%
23:00 +17°C° 0 mm 2 m/S 746 mmHg 87%

19 Juni, Samstag

Zeit Temperatur Niederschläge Wind Luftdruck Luftfeuchtigkeit
00:00 +17°C° 0 mm 2 m/S 747 mmHg 89%
01:00 +16°C° 0 mm 2 m/S 747 mmHg 91%
02:00 +15°C° 0 mm 2 m/S 747 mmHg 93%
03:00 +16°C° 0 mm 2 m/S 747 mmHg 90%
04:00 +16°C° 0 mm 2 m/S 747 mmHg 87%
05:00 +18°C° 0 mm 1 m/S 747 mmHg 85%
06:00 +19°C° 0 mm 2 m/S 747 mmHg 76%
07:00 +21°C° 0 mm 2 m/S 747 mmHg 68%
08:00 +24°C° 0 mm 2 m/S 747 mmHg 60%
09:00 +25°C° 0 mm 2 m/S 747 mmHg 54%
10:00 +26°C° 0 mm 3 m/S 747 mmHg 49%
11:00 +28°C° 0 mm 3 m/S 747 mmHg 44%
12:00 +28°C° 0 mm 3 m/S 746 mmHg 42%
13:00 +29°C° 0 mm 3 m/S 746 mmHg 40%
14:00 +30°C° 0 mm 3 m/S 746 mmHg 39%
15:00 +29°C° 0 mm 3 m/S 746 mmHg 41%
16:00 +29°C° 0 mm 2 m/S 746 mmHg 43%
17:00 +29°C° 0 mm 2 m/S 745 mmHg 45%
18:00 +27°C° 0 mm 2 m/S 745 mmHg 55%
19:00 +24°C° 0 mm 2 m/S 745 mmHg 65%
20:00 +21°C° 0 mm 2 m/S 745 mmHg 75%
21:00 +20°C° 0 mm 2 m/S 745 mmHg 78%
22:00 +19°C° 0 mm 2 m/S 746 mmHg 82%
23:00 +18°C° 0 mm 2 m/S 746 mmHg 86%

20 Juni, Sonntag

Zeit Temperatur Niederschläge Wind Luftdruck Luftfeuchtigkeit
00:00 +17°C° 0 mm 2 m/S 746 mmHg 88%
01:00 +17°C° 0 mm 2 m/S 746 mmHg 91%
02:00 +16°C° 0 mm 2 m/S 746 mmHg 93%
03:00 +16°C° 0 mm 1 m/S 746 mmHg 91%
04:00 +18°C° 0 mm 1 m/S 746 mmHg 88%
05:00 +18°C° 0 mm 1 m/S 746 mmHg 85%
06:00 +20°C° 0 mm 1 m/S 746 mmHg 77%
07:00 +21°C° 0 mm 2 m/S 746 mmHg 68%
08:00 +24°C° 0 mm 2 m/S 746 mmHg 60%
09:00 +25°C° 0 mm 2 m/S 746 mmHg 54%
10:00 +27°C° 0 mm 2 m/S 746 mmHg 48%
11:00 +28°C° 0 mm 3 m/S 745 mmHg 42%
12:00 +29°C° 0 mm 3 m/S 745 mmHg 40%
13:00 +29°C° 0 mm 3 m/S 745 mmHg 38%
14:00 +30°C° 0 mm 3 m/S 745 mmHg 36%
15:00 +29°C° 0 mm 3 m/S 744 mmHg 38%
16:00 +29°C° 0 mm 3 m/S 744 mmHg 40%
17:00 +29°C° 0 mm 2 m/S 744 mmHg 42%
18:00 +27°C° 0 mm 2 m/S 744 mmHg 52%
19:00 +24°C° 0 mm 2 m/S 744 mmHg 62%
20:00 +21°C° 0 mm 2 m/S 744 mmHg 72%
21:00 +20°C° 0 mm 2 m/S 744 mmHg 75%
22:00 +19°C° 0 mm 2 m/S 744 mmHg 78%
23:00 +17°C° 0 mm 2 m/S 744 mmHg 81%

21 Juni, Montag

Zeit Temperatur Niederschläge Wind Luftdruck Luftfeuchtigkeit
00:00 +17°C° 0 mm 2 m/S 744 mmHg 84%
01:00 +16°C° 0 mm 1 m/S 744 mmHg 86%
02:00 +16°C° 0 mm 1 m/S 744 mmHg 89%
03:00 +16°C° 0 mm 1 m/S 744 mmHg 87%
04:00 +18°C° 0 mm 1 m/S 744 mmHg 86%
05:00 +19°C° 0 mm 1 m/S 744 mmHg 84%
06:00 +21°C° 0 mm 1 m/S 744 mmHg 76%
07:00 +21°C° 0 mm 2 m/S 744 mmHg 68%
08:00 +24°C° 0 mm 2 m/S 744 mmHg 60%
09:00 +26°C° 0 mm 2 m/S 744 mmHg 53%
10:00 +27°C° 0 mm 2 m/S 744 mmHg 47%
11:00 +28°C° 0 mm 2 m/S 744 mmHg 41%
12:00 +29°C° 0 mm 2 m/S 743 mmHg 39%
13:00 +30°C° 0 mm 2 m/S 743 mmHg 37%
14:00 +30°C° 0 mm 2 m/S 743 mmHg 35%
15:00 +30°C° 0 mm 2 m/S 743 mmHg 36%
16:00 +30°C° 0 mm 1 m/S 743 mmHg 38%
17:00 +30°C° 0 mm 1 m/S 742 mmHg 39%
18:00 +28°C° 0 mm 1 m/S 742 mmHg 49%
19:00 +25°C° 0 mm 1 m/S 742 mmHg 59%
20:00 +23°C° 0 mm 1 m/S 742 mmHg 68%
21:00 +22°C° 0 mm 1 m/S 742 mmHg 72%
22:00 +21°C° 0 mm 1 m/S 742 mmHg 76%
23:00 +20°C° 0 mm 1 m/S 742 mmHg 80%
Mehr zeigen

Wir brauchen deine Erlaubnis

Meteoprog und unser Service Anbieter werden persönliche Daten aufbewahren, so wie Cookies, Geräte Bezeichnung oder ähnliche Technologien von deinem Gerät und Prozess, so wie Persönliche Daten Inhalte und Werbungen, genauso wie social Media und den Verkehr zu analysieren.

  • Aufbewahrung und/oder Zugang zu deiner Geräte Informationen.

    Cookies, Geräte Bezeichnung oder andere Informationen, können aufbewahrt oder Zugang zu deinem Gerät erhalten, für den Grund, der oben angegeben wird.

  • Personalisierte Werbung und Inhalte, Messungen, Einblick in das Publikum und Produkt Entwicklung.

    Werbungen und Inhalte können personalisiert werden, basierend auf ein Profil. Mehr Daten können besser personalisierte Werbungen und Inhalte hinzufügen. Werbung und Inhalte können gezeigt und gemessen werden. Einblicke über das Publikum, welche die Werbung gesehen haben und den Inhalt, können abgeleitet werden. So wie Daten können genutzt werden, um es zu verbessern oder die Benutzer Erfahrung zu verbessern das System und die Software.

Wenn du “Ich stimme zu” klickst, erlaubst du uns, die Cookies zu benutzen die Geräte Bezeichnung, den Web oder ähnliche Technologien zu benutzen. Deine Settings, können in deinem Gerät bei deinem Browser geändert werden.

Für den bestimmten Zweck, berechtigten Interessen beruhen darauf, mehr als auf den Inhalt. Du kannst mehr darüber in unseren Privaten und Cookie Politik lesen.